This is the latest recevied weather packets stored in our database for station/object KK4WXG. If no packets are shown the sender has not sent any weather packets the latest 10 day(s).
| Time | Temp. | Humidity | Pressure | Rain* | Wind** | Luminosity | Snow |
|---|---|---|---|---|---|---|---|
| 1777411910 | 16.11° C | 73% | 1016.2 hPa | 0 mm | - | 130 W/m² | - |
| 1777411609 | 16.11° C | 74% | 1016 hPa | 0 mm | - | 140 W/m² | - |
| 1777411304 | 16.11° C | 73% | 1016 hPa | 0 mm | - | 161 W/m² | - |
| 1777411003 | 15.56° C | 74% | 1016 hPa | 0 mm | - | 197 W/m² | - |
| 1777410703 | 15.56° C | 72% | 1016.3 hPa | 0 mm | - | 119 W/m² | - |
| 1777410398 | 15.56° C | 72% | 1016.3 hPa | 0 mm | - | 90 W/m² | - |
| 1777410096 | 15.56° C | 72% | 1016.3 hPa | 0 mm | - | 96 W/m² | - |
| 1777409792 | 15.56° C | 71% | 1016.2 hPa | 0 mm | - | 98 W/m² | - |
| 1777409488 | 15.56° C | 71% | 1016.3 hPa | 0 mm | - | 94 W/m² | - |
| 1777409184 | 15° C | 72% | 1016.3 hPa | 0 mm | - | 105 W/m² | - |
| 1777408880 | 15° C | 72% | 1016.4 hPa | 0 mm | - | 88 W/m² | - |
| 1777408576 | 15° C | 71% | 1016.4 hPa | 0 mm | - | 75 W/m² | - |
| 1777408272 | 15° C | 72% | 1016.1 hPa | 0 mm | - | 109 W/m² | - |
| 1777407972 | 15° C | 71% | 1016.3 hPa | 0 mm | - | 95 W/m² | - |
| 1777407670 | 15° C | 71% | 1016.4 hPa | 0 mm | - | 97 W/m² | - |
| 1777407370 | 15° C | 73% | 1016.3 hPa | 0 mm | - | 99 W/m² | - |
| 1777407065 | 15° C | 71% | 1016.4 hPa | 0 mm | - | 109 W/m² | - |
| 1777406761 | 15° C | 72% | 1016.5 hPa | 0 mm | - | 133 W/m² | - |
| 1777406461 | 15° C | 71% | 1016.6 hPa | 0 mm | - | 121 W/m² | - |
| 1777406156 | 15° C | 71% | 1016.6 hPa | 0 mm | - | 116 W/m² | - |
| 1777405851 | 15° C | 71% | 1016.5 hPa | 0 mm | - | 150 W/m² | - |
| 1777405548 | 15° C | 71% | 1016.2 hPa | 0 mm | - | 135 W/m² | - |
| 1777405245 | 15.56° C | 70% | 1016.6 hPa | 0 mm | - | 123 W/m² | - |
| 1777404944 | 15° C | 71% | 1016.5 hPa | 0 mm | - | 115 W/m² | - |
| 1777404640 | 15° C | 71% | 1016.6 hPa | 0 mm | - | 111 W/m² | - |
* Rain latest hour (hover to see other rain measurements)
** Current wind speed in m/s (hover to see current wind gust speed)